Weather in Starye Chukaly

Russia / Chuvash Republic     54°42′49″N   47°12′03″E
temp.,
°C
wind,
m/s
gust,
m/s
humid.,
%
clouds,
%
prec.,
mm/h
press.,
hPa
HPBL,
m
8 may, sat
sat800:00+8nnw4696100 4.3 1016401
03:00+7ne4993100 5.9 1016391
06:00+7ne2495100 0.7 1017242
09:00+9ene358773 0.8 1017392
12:00+13ese3375100 0.0 1016873
15:00+14ese347099 0.1 1015836
18:00+15se487044 0.1 1012279
21:00+11sse378117 0.1 1012134
9 may, sun
sun900:00+11se2283100 0.0 101119
03:00+10sse3886100 0.0 1011131
06:00+12sse41272100 0.0 1011323
09:00+16sse61160100 0.0 1011568
12:00+19sse61256100 0.0 10101230
15:00+20s61260100 0.4 10101698
18:00+14sw41090100 3.8 1012462
21:00+10nw4795100 5.4 1015358
10 may, mon
mon1000:00+8nw369499 0.0 1016293
03:00+7nw4896100 0.0 1019382
06:00+6nnw5894100 0.5 1020365
09:00+8nnw5786100 0.6 1023538
12:00+9n7981100 0.1 1024574
15:00+10nne6878100 0.1 1025620
18:00+9nne5108398 0.0 1026515
21:00+7nne61387100 0.0 1028484
11 may, tue
tue1100:00+6ne51289100 0.0 1028408
03:00+6ne51388100 0.0 1029397
06:00+7ne61381100 0.0 1029392
09:00+11ene6963100 0.0 1030548
12:00+15ene6854100 0.0 1030778
15:00+16ene6752100 0.0 1029801
18:00+14ene596026 0.0 1029487
21:00+10ene3117058 0.0 1030218
12 may, wed
wed1200:00+10ene412663 0.0 1030253
03:00+9ene5126910 0.0 1029229
06:00+11e5127145 0.0 1029298
09:00+16e696099 0.0 1029505
12:00+19e5756100 0.0 1029807
15:00+20e565497 0.0 10281097
18:00+18e4863100 0.0 1028308
21:00+13e31068100 0.0 1027196